Vertical_Velocity
-1 -1 -2 -2 -2 -2 -2 -1 -1 -3 -3 -1 -1 -2 0 -1 -0 -4 -10 11 4 12 1 3 -5 9 -0 3 10 1 8 -1 -14 5 -15 -6 6 -5 -9 4 11 -1 2 -7 -5
-1 -1 -2 -1 -2 -2 -1 -2 -1 -2 -8 -10 1 -2 -2 -3 -5 6 4 -3 -2 -1 -10 0 -4 -5 1 -7 6 9 6 -15 -5 -4 -3 -4 7 1 4 4 -2 -4 36 3 -1
-1 -1 0 1 -2 -1 -3 -1 -4 -8 -8 -4 -2 -6 -6 -4 16 9 -8 -6 1 -7 -5 -1 6 6 4 9 -8 -8 -3 -5 -12 -1 5 -0 -0 11 -0 5 -10 -9 11 2 -3
-1 -2 -2 -0 -1 -1 -3 -4 -5 -4 1 2 -3 -0 -5 -7 5 -6 -15 -0 -3 -7 -4 -5 -8 -2 4 2 1 -2 -2 5 -11 -1 2 0 -1 -4 7 -7 -18 -19 24 1 0
-1 -0 -2 -2 -1 -2 -2 -1 -3 -0 -2 -3 -6 3 1 -0 -3 -3 10 -10 -10 6 4 1 5 3 3 2 1 5 -2 -2 -4 5 1 1 -3 1 -5 9 -2 4 13 4 -2
-0 -1 -1 -2 -2 -2 -1 -5 -3 -6 -4 -5 -3 11 -14 -13 6 2 -13 -1 2 0 -4 3 0 -3 3 0 8 -0 -0 -4 -4 -5 -1 12 -8 18 -9 11 -6 4 -1 14 -7
1 -0 -0 -2 -1 -3 -1 -4 -2 -2 -5 -5 -2 -7 -14 19 -5 -15 4 -2 -1 5 -1 -1 -5 17 2 -0 -3 1 2 -3 -3 -6 -5 1 5 -3 -13 4 14 -6 -5 9 4
1 0 -1 -3 1 -0 -2 -4 -6 -1 1 -6 10 8 -1 0 -8 13 -4 -10 -3 -3 -2 5 -1 -1 14 -6 -3 6 5 0 -4 2 -4 6 -6 -9 -12 5 -5 5 -6 3 6
0 2 1 -2 -1 1 -0 -3 -3 1 5 -6 -15 -2 4 6 -18 12 -4 -1 -14 2 1 3 2 0 7 5 0 0 -1 1 -6 -1 -0 6 -3 -6 -7 3 -4 -3 2 2 -5
-1 -1 1 -0 -1 1 -0 -4 -3 -3 -1 1 -17 -13 -35 -2 -9 -2 -4 -4 6 7 4 -2 4 2 3 2 -4 -2 1 -1 0 -4 3 3 -4 -1 -1 2 -4 -4 -2 -3 0
-1 -1 -0 -1 -2 0 -3 -8 -4 5 -17 4 4 6 -1 -1 11 -16 -7 -16 -13 -3 -2 1 -6 2 2 1 2 3 2 0 -5 -4 5 -2 -1 -4 -3 4 1 1 4 -1 1
-1 -1 -0 -0 -1 2 -2 -5 -2 -0 4 9 -4 -6 -4 6 -11 -7 -5 -11 -4 2 -6 -8 1 2 1 0 2 0 1 -4 -5 -1 3 -1 -2 -2 0 -3 -2 -2 -3 1 2
-2 -1 -1 1 -1 -1 -5 -3 -3 -1 3 8 0 -7 -4 -7 3 -8 -9 -1 2 -3 -0 -1 10 -0 2 -2 1 -1 0 -2 6 -4 -1 3 1 7 -2 4 1 -4 -3 2 3
-2 -2 -2 -2 -3 -2 -0 0 -2 -2 2 0 -3 -7 -16 -15 -8 7 13 1 -8 4 1 3 -1 2 -2 0 1 1 1 2 1 1 2 4 -1 3 -1 -0 1 -1 -5 8 20
-2 -1 -0 -3 -3 -1 3 2 -1 -3 -6 -17 -3 -8 -9 -9 7 -10 -11 -0 1 1 1 7 -2 -2 -3 4 1 -6 3 3 2 1 2 -3 -2 2 2 4 0 -2 -4 -1 5
-3 -1 0 -2 -3 1 0 1 0 0 -7 -10 1 -5 -8 -9 -8 -1 -8 -25 2 2 -4 -1 6 -2 7 0 0 1 -2 -0 1 -0 2 -3 -3 1 1 7 -3 -3 -2 -2 -5
-2 -2 -4 -4 -3 0 2 -3 -1 -9 -8 -8 -1 -1 2 -2 -8 -4 -5 -12 -2 -6 -5 -5 1 -1 -1 -4 -4 -4 1 -1 2 -4 -7 -0 -7 4 1 1 5 3 -2 1 -2
-2 -3 -3 -1 -1 1 -1 -0 -12 1 0 -2 1 -4 2 3 -3 -4 -3 -2 -3 -3 1 2 -17 -2 -3 -0 9 -0 3 1 -1 -3 -1 -1 1 6 3 1 2 2 2 -1 -2
-2 -3 -5 -4 -4 -3 -2 -8 3 2 3 2 -10 -1 -3 -5 10 -1 1 1 3 4 1 0 -8 -5 -2 0 1 -8 -2 2 2 -0 -5 2 3 5 -3 -3 -4 -2 -2 -0 -2
-3 -2 -1 -2 -3 -3 -11 -1 1 -0 1 1 3 1 1 -2 -4 -3 -1 4 -0 4 3 -4 -3 -2 3 -5 -6 0 -3 -1 -3 -2 1 2 1 0 -6 -3 -2 -4 -0 -3 1
-2 -0 -1 -2 -7 -14 -2 1 0 -1 -1 3 1 -0 1 2 3 -1 0 -5 -1 -5 1 1 -2 -16 -6 -4 3 -10 -4 -2 -0 -0 2 1 0 1 1 2 1 -0 1 1 -0
-3 -1 -3 -2 -7 0 -0 1 -2 -0 -1 0 1 1 1 0 0 0 2 2 2 6 1 0 1 -0 -4 -5 1 -1 -1 2 0 -6 -1 -1 -1 -1 -0 1 2 -0 0 1 3
-2 -2 -3 -7 -2 0 2 1 -1 0 0 -1 0 -0 -0 0 -3 1 -0 -1 -1 -1 3 -4 -5 -3 -14 -9 -7 -1 -1 0 -1 -1 0 -3 -3 -1 -1 -3 -2 0 -2 -1 0
-3 -2 -0 -9 -3 2 0 1 1 -0 -1 -1 -1 3 -0 0 1 -5 -2 -1 1 1 1 0 -0 -2 -3 -9 -0 -3 -2 -0 0 -3 -2 -2 -4 -3 -1 -0 -3 -4 -3 3 2
-3 2 0 -1 -1 -0 -0 -0 -0 0 -1 -0 -1 1 -2 -1 -1 -0 -1 -4 -2 -1 -2 -6 -0 0 -2 -0 1 1 1 -0 -2 -1 -4 -5 1 0 2 2 2 1 -3 2 -2
-1 -2 1 -0 -2 1 0 -1 1 -2 -1 -0 0 -1 -1 -2 -7 -3 -1 -0 -0 -7 -0 -1 -5 0 -2 -0 1 0 -0 -0 -0 -1 -1 0 -4 1 -1 -2 -2 -1 1 -0 -1
-2 -1 -0 0 0 -0 0 -0 -1 -1 -3 -0 0 0 1 -9 0 -2 2 1 1 -1 -0 -1 -0 -2 -4 -0 -1 -4 -4 -1 -1 -0 -1 -1 -8 -0 -3 -1 -1 -0 -0 -0 0
Height
1512 1509 1506 1504 1502 1501 1499 1497 1496 1495 1492 1490 1487 1484 1483 1482 1480 1478 1477 1480 1477 1473 1471 1470 1469 1467 1464 1463 1464 1462 1452 1437 1432 1441 1443 1440 1441 1441 1446 1450 1452 1456 1458 1462 1467
1513 1510 1508 1506 1504 1503 1501 1500 1499 1496 1493 1489 1486 1484 1482 1480 1479 1478 1481 1479 1477 1474 1471 1470 1467 1464 1463 1461 1459 1455 1445 1430 1442 1442 1441 1440 1438 1441 1442 1446 1448 1451 1456 1457 1465
1514 1511 1509 1508 1506 1504 1502 1502 1500 1497 1492 1487 1483 1481 1480 1479 1479 1482 1482 1478 1475 1473 1471 1469 1466 1464 1461 1460 1458 1449 1439 1442 1442 1443 1445 1442 1436 1438 1440 1440 1445 1449 1457 1457 1461
1515 1512 1510 1508 1506 1505 1504 1503 1500 1496 1492 1486 1482 1480 1478 1477 1482 1482 1480 1477 1473 1470 1469 1467 1464 1462 1460 1457 1457 1458 1444 1444 1445 1442 1447 1441 1440 1434 1440 1437 1444 1449 1455 1455 1459
1517 1514 1511 1508 1507 1505 1504 1503 1500 1496 1494 1488 1484 1483 1481 1481 1486 1482 1478 1475 1471 1469 1466 1465 1464 1462 1459 1455 1453 1454 1454 1452 1449 1447 1444 1445 1439 1438 1435 1437 1440 1446 1451 1451 1457
1518 1514 1511 1508 1507 1505 1505 1503 1501 1497 1494 1490 1487 1486 1483 1485 1486 1481 1476 1471 1468 1464 1460 1461 1460 1460 1457 1455 1454 1451 1453 1449 1447 1444 1446 1442 1440 1442 1434 1439 1440 1441 1446 1449 1453
1519 1514 1511 1509 1506 1505 1504 1503 1500 1496 1494 1491 1490 1488 1486 1491 1485 1479 1475 1468 1461 1457 1453 1453 1455 1458 1454 1451 1449 1449 1448 1445 1445 1443 1445 1441 1439 1430 1438 1438 1439 1439 1442 1447 1449
1520 1515 1511 1508 1505 1503 1502 1501 1500 1497 1495 1493 1489 1488 1488 1488 1483 1477 1469 1461 1457 1453 1449 1448 1448 1450 1452 1451 1448 1449 1446 1448 1433 1438 1436 1443 1433 1432 1437 1437 1438 1439 1440 1444 1448
1521 1516 1512 1508 1504 1501 1500 1499 1499 1497 1494 1492 1491 1487 1490 1485 1478 1475 1469 1458 1453 1449 1447 1446 1448 1448 1447 1450 1455 1449 1454 1443 1431 1427 1429 1434 1434 1433 1435 1435 1437 1439 1438 1440 1445
1522 1517 1512 1508 1504 1500 1500 1498 1498 1498 1496 1491 1492 1490 1487 1486 1480 1476 1468 1458 1452 1448 1447 1447 1446 1445 1445 1449 1462 1454 1453 1436 1439 1432 1425 1426 1427 1430 1427 1431 1434 1436 1437 1439 1443
1523 1518 1512 1508 1505 1501 1500 1499 1501 1502 1498 1501 1501 1500 1497 1490 1484 1475 1465 1458 1454 1449 1449 1447 1453 1455 1453 1449 1450 1445 1442 1445 1435 1433 1438 1425 1423 1423 1424 1429 1434 1432 1434 1437 1441
1524 1519 1513 1509 1506 1502 1500 1499 1501 1504 1504 1503 1501 1499 1496 1490 1481 1472 1465 1462 1458 1455 1455 1455 1461 1455 1448 1444 1444 1444 1447 1444 1429 1431 1433 1420 1418 1424 1427 1426 1429 1431 1434 1436 1440
1525 1520 1515 1509 1506 1503 1502 1502 1503 1503 1504 1501 1499 1498 1491 1489 1485 1477 1470 1466 1464 1461 1460 1460 1463 1454 1451 1449 1449 1447 1451 1442 1435 1429 1425 1426 1420 1423 1423 1425 1429 1431 1435 1435 1438
1526 1521 1516 1511 1508 1506 1504 1504 1503 1503 1503 1504 1501 1502 1496 1490 1488 1483 1476 1471 1470 1467 1463 1461 1461 1457 1453 1451 1449 1454 1442 1435 1434 1439 1429 1427 1427 1421 1422 1422 1426 1433 1437 1439 1438
1527 1522 1518 1511 1510 1508 1507 1504 1504 1504 1511 1508 1505 1504 1501 1498 1496 1485 1480 1471 1474 1470 1469 1469 1466 1460 1458 1456 1452 1454 1445 1444 1438 1434 1435 1428 1434 1436 1420 1422 1447 1447 1447 1443 1437
1528 1524 1519 1515 1511 1509 1505 1503 1504 1506 1526 1517 1510 1509 1504 1498 1495 1489 1485 1475 1474 1468 1465 1469 1461 1460 1461 1450 1449 1451 1448 1437 1435 1438 1438 1427 1435 1459 1458 1458 1453 1451 1448 1446 1439
1528 1525 1520 1516 1514 1510 1506 1505 1506 1522 1523 1520 1518 1512 1505 1501 1494 1487 1485 1485 1490 1486 1481 1467 1462 1459 1457 1454 1452 1452 1451 1449 1442 1458 1463 1416 1435 1470 1466 1465 1462 1458 1453 1448 1441
1528 1526 1522 1519 1515 1511 1508 1509 1520 1529 1530 1528 1523 1516 1505 1504 1500 1493 1490 1493 1494 1493 1489 1487 1474 1464 1460 1463 1463 1454 1451 1447 1446 1458 1444 1428 1456 1476 1472 1469 1465 1461 1455 1449 1441
1526 1526 1524 1522 1519 1514 1513 1528 1543 1542 1541 1537 1525 1518 1512 1508 1507 1498 1499 1501 1501 1497 1504 1496 1488 1469 1465 1462 1459 1457 1453 1461 1454 1425 1432 1446 1466 1467 1469 1469 1465 1459 1455 1448 1444
1526 1526 1525 1523 1520 1518 1520 1535 1541 1543 1542 1538 1531 1527 1524 1517 1516 1508 1505 1503 1506 1503 1496 1498 1497 1470 1469 1465 1464 1462 1461 1456 1457 1446 1439 1454 1472 1484 1475 1470 1466 1464 1458 1453 1447
1526 1527 1528 1525 1522 1522 1534 1541 1540 1541 1542 1541 1537 1535 1529 1529 1524 1518 1514 1507 1507 1504 1498 1498 1501 1481 1471 1481 1482 1470 1474 1462 1466 1455 1446 1438 1483 1483 1483 1475 1472 1468 1465 1459 1451
1528 1529 1530 1526 1527 1530 1538 1540 1541 1539 1540 1539 1539 1536 1534 1532 1530 1524 1519 1514 1511 1510 1507 1501 1502 1498 1487 1480 1476 1480 1488 1483 1470 1478 1471 1464 1493 1484 1481 1476 1473 1470 1463 1459 1456
1532 1532 1531 1528 1534 1535 1539 1540 1540 1539 1537 1537 1536 1536 1535 1534 1539 1527 1520 1514 1513 1512 1513 1509 1507 1503 1482 1483 1478 1486 1482 1485 1484 1476 1490 1491 1486 1480 1476 1476 1476 1472 1466 1462 1455
1535 1535 1534 1532 1536 1537 1539 1538 1537 1537 1537 1537 1536 1533 1532 1528 1527 1531 1521 1514 1514 1513 1509 1506 1510 1510 1517 1508 1497 1498 1488 1488 1489 1498 1498 1498 1494 1488 1482 1479 1473 1469 1467 1463 1456
1539 1544 1543 1540 1537 1539 1540 1540 1536 1536 1537 1536 1534 1533 1535 1543 1532 1524 1520 1520 1516 1515 1511 1512 1519 1506 1502 1493 1491 1490 1492 1490 1500 1499 1502 1492 1486 1483 1477 1475 1473 1471 1471 1461 1455
1546 1546 1544 1542 1541 1541 1538 1538 1537 1535 1536 1533 1536 1530 1532 1538 1531 1535 1530 1527 1525 1518 1517 1515 1518 1505 1499 1488 1486 1489 1486 1488 1488 1491 1491 1489 1482 1478 1477 1475 1474 1473 1465 1458 1456
1549 1547 1545 1541 1540 1541 1540 1538 1537 1536 1531 1531 1531 1532 1532 1526 1523 1523 1523 1522 1521 1524 1523 1523 1523 1520 1507 1483 1484 1498 1494 1491 1494 1491 1491 1493 1486 1478 1477 1476 1473 1469 1465 1461 1458